This is the latest recevied weather packets stored in our database for station/object W1CAT. If no packets are shown the sender has not sent any weather packets the latest 10 day(s).
| Time | Temp. | Humidity | Pressure | Rain* | Wind** | Luminosity | Snow |
|---|---|---|---|---|---|---|---|
| 1787753918 | 13.89° C | 69% | - | 0 mm | - | - | - |
| 1787753618 | 13.89° C | 70% | - | 0 mm | - | - | - |
| 1787753311 | 13.89° C | 71% | - | 0 mm | - | - | - |
| 1787753006 | 13.33° C | 70% | - | 0 mm | - | - | - |
| 1787752705 | 12.78° C | 75% | - | 0 mm | - | - | - |
| 1787752401 | 11.67° C | 79% | - | 0 mm | - | - | - |
| 1787752100 | 10.56° C | 83% | - | 0 mm | - | - | - |
| 1787751795 | 10° C | 89% | - | 0 mm | - | - | - |
| 1787751489 | 8.89° C | 92% | - | 0 mm | - | - | - |
| 1787751185 | 8.89° C | 97% | - | 0 mm | - | - | - |
| 1787750881 | 7.78° C | 98% | - | 0 mm | - | - | - |
| 1787750575 | 7.22° C | 98% | - | 0 mm | - | - | - |
| 1787750270 | 6.67° C | 97% | - | 0 mm | - | - | - |
| 1787749960 | 6.67° C | 97% | - | 0 mm | - | - | - |
| 1787749656 | 6.67° C | 97% | - | 0 mm | - | - | - |
| 1787749354 | 6.67° C | 97% | - | 0 mm | - | - | - |
| 1787749045 | 6.11° C | 97% | - | 0 mm | - | - | - |
| 1787748735 | 6.11° C | 97% | - | 0 mm | - | - | - |
| 1787748429 | 6.11° C | 97% | - | 0 mm | - | - | - |
| 1787748126 | 6.11° C | 97% | - | 0 mm | - | - | - |
| 1787747819 | 6.11° C | 97% | - | 0 mm | - | - | - |
| 1787747515 | 6.11° C | 96% | - | 0 mm | - | - | - |
| 1787747208 | 6.67° C | 96% | - | 0 mm | - | - | - |
| 1787746905 | 6.11° C | 96% | - | 0 mm | - | - | - |
| 1787746605 | 6.67° C | 96% | - | 0 mm | - | - | - |
* Rain latest hour (hover to see other rain measurements)
** Current wind speed in m/s (hover to see current wind gust speed)